Regional Weather Roundup
Issued by NWS

Home | Current Version | Previous Version | Graphics & Text | Print | Product List | Glossary On
Versions: 1 2 3 4 5 6 7 8 9 10 11 12 13 14 15 16 17 18 19 20 21 22 23 24 25 26 27 28 29 30 31 32 33 34 35 36 37 38 39 40 41 42 43 44 45 46 47 48 49 50
000
ASUS43 KMKX 241931
RWRWI

WISCONSIN REGIONAL WEATHER ROUNDUP
NATIONAL WEATHER SERVICE MILWAUKEE/SULLIVAN WI
300 PM CDT SUN MAY 24 2015

NOTE: "FAIR" INDICATES FEW OR NO CLOUDS BELOW 12,000 FEET WITH NO
SIGNIFICANT WEATHER AND/OR OBSTRUCTIONS TO VISIBILITY.

WIZ001-002-006>008-014>016-023>028-242100-
NORTHWEST WISCONSIN

CITY           SKY/WX    TMP DP  RH WIND       PRES   REMARKS
SUPERIOR ARPT  CLOUDY    67  46  46 NE6       30.02F
ASHLAND        CLOUDY    74  50  42 N8        30.03F
HAYWARD        CLOUDY    73  47  39 S12       30.02F
SIREN          DRIZZLE   67  52  58 SE7       30.02S
CUMBERLAND     LGT RAIN  63  52  67 SE10G16   30.03F
RICE LAKE      DRIZZLE   64  54  70 SE14      30.05F
CHETEK         LGT RAIN  62  56  82 E10       30.05F
LADYSMITH      CLOUDY    66  54  66 S9        30.07F
EAU CLAIRE     LGT RAIN  61  57  87 SE7       30.03F
MENOMONIE      LGT RAIN  61  58  91 E12       30.03F
NEW RICHMOND   LGT RAIN  60  55  82 SE8       30.02F
OSCEOLA        LGT RAIN  64  56  77 SE12      30.04S
$$

WIZ003>005-009-010-017-018-242100-
NORTH CENTRAL WISCONSIN

CITY           SKY/WX    TMP DP  RH WIND       PRES   REMARKS
MANITOWISH WTR CLOUDY    73  48  41 S9        30.05F
ARBOR VITAE    CLOUDY    74  48  39 SE10G18   30.06F
WOODRUFF       CLOUDY    74  48  39 SE10G18   30.06F
RHINELANDER    CLOUDY    73  45  36 S15       30.08F
EAGLE RIVER    CLOUDY    74  42  31 SE13      30.06F
LAND O LAKES   CLOUDY    75  43  31 S7        30.06F
PHILLIPS       CLOUDY    69  51  52 S9G16     30.05F
TOMAHAWK       CLOUDY    66  52  59 SW7       30.09F
MEDFORD        RAIN      59  56  89 SE7       30.08F
MERRILL        LGT RAIN  61  56  83 S10       30.11F
$$

WIZ029-030-035-036-043>047-242100-
CENTRAL WISCONSIN

CITY           SKY/WX    TMP DP  RH WIND       PRES   REMARKS
WAUSAU         LGT RAIN  62  55  77 S8        30.08F
MOSINEE        DRIZZLE   61  57  88 SE9       30.11F
MARSHFIELD     RAIN      60  54  80 SE12      30.08F
STEVENS POINT  LGT RAIN  58  55  91 E7        30.10F
WAUPACA        LGT RAIN  62  57  83 E5        30.11F
WAUTOMA        LGT RAIN  60  60 100 E6        30.10F FOG
WISC RAPIDS    LGT RAIN  59  55  87 SE9       30.09F
CAMP DOUGLAS   LGT RAIN  59  59 100 SE13      30.04F FOG
$$

WIZ011>013-019>022-031-037>040-048>050-242100-
NORTHEAST WISCONSIN

CITY           SKY/WX    TMP DP  RH WIND       PRES   REMARKS
ANTIGO         DRIZZLE   62  55  75 S17       30.12S
SHAWANO        CLOUDY    68  53  58 S8        30.12F
OCONTO         CLOUDY    68  53  58 SW12G18   30.11F
STURGEON BAY   CLOUDY    66  52  59 S8        30.14F
GREEN BAY      LGT RAIN  63  57  81 S12       30.14F
MANITOWOC      LGT RAIN  62  57  83 SE7       30.14F
APPLETON       DRIZZLE   61  54  77 SE6       30.13F
CLINTONVILLE   RAIN      63  54  72 S10       30.12F
OSHKOSH        LGT RAIN  61  56  83 SE6       30.12F
$$

WIZ032>034-041-042-053>061-242100-
SOUTHWEST WISCONSIN

CITY           SKY/WX    TMP DP  RH WIND       PRES   REMARKS
LA CROSSE      RAIN      61  57  87 E8        29.99F FOG
SPARTA         RAIN      58  56  94 E6        30.05F
VIROQUA        CLOUDY    57  57 100 E15       30.01F
BOSCOBEL       LGT RAIN  61  57  87 NE7       30.01F FOG
PRAIRIE DU CHI LGT RAIN  59  56  89 E9        29.99F
PLATTEVILLE    CLOUDY    60  58  94 E21       30.00F
$$

WIZ056-057-062-063-064-067-068-242100-
SOUTH CENTRAL WISCONSIN

CITY           SKY/WX    TMP DP  RH WIND       PRES   REMARKS
REEDSBURG      LGT RAIN  57  56  97 E7        30.05F
BARABOO/DELLS  RAIN      58  56  91 E8        30.06F
LONE ROCK      LGT RAIN  60  57  89 E13       30.02F
MINERAL POINT  LGT RAIN  59  57  94 E9G20     30.01F
MADISON        LGT RAIN  60  56  86 E12       30.06F
MIDDLETON      CLOUDY    61  57  88 E12       30.06F
WATERTOWN      LGT RAIN  60  60  97 E9        30.07F
MONROE         RAIN      59  57  94 NE10G16   30.03F
JANESVILLE     CLOUDY    66  55  68 E15       30.04F
$$

WIZ051-052-058>065-066-070>072-242100-
SOUTHEAST WISCONSIN

CITY           SKY/WX    TMP DP  RH WIND       PRES   REMARKS
MILWAUKEE      LGT RAIN  61  54  77 NE6       30.12F
WAUKESHA       CLOUDY    61  54  77 NE8       30.12F
MILWAUKEE/TIMM CLOUDY    61  54  77 E6        30.12F
RACINE         LGT RAIN  56  49  77 E5        30.13F
BURLINGTON     CLOUDY    65  53  64 E10       30.08F
KENOSHA        LGT RAIN  61  53  75 E13       30.11F
FOND DU LAC    LGT RAIN  62  56  80 SE5       30.12F
SHEBOYGAN      LGT RAIN  63  56  78 S5        30.13F
WEST BEND      LGT RAIN  61  55  82 E6        30.12F
JUNEAU         RAIN      60  56  86 E9        30.11F
$$

LSZ147-162-242100-
LAKE SUPERIOR

STATION/POSITION TIME  TEMP    WIND        PRES    WAVE
                       AIR SEA DIR/SP/G            HT/PER
                 (UTC) (F)     (DEG/KT/KT) (MB)    (FT/S)
W MID LAKE BUOY  1850   50 37  210/  6/  6   N/A     0
DEVILS ISLAND    1900   67      60/  1/  2   N/A
PORT WING        1840   52     350/  2/  4   N/A
SAXON HARBOR     1800   62        CALM       N/A
$$

LMZ867-665-643>646-242100-
LAKE MICHIGAN

STATION/POSITION TIME  TEMP    WIND        PRES    WAVE
                       AIR SEA DIR/SP/G            HT/PER
                 (UTC) (F)     (DEG/KT/KT) (MB)    (FT/S)
CHAMBERS ISLAND  1800   72     170/  3/  7   N/A
N MID LAKE BUOY  1850   41 36  200/ 10/ 12   N/A     1
NORTHPORT PIER   1900   57     140/  9/ 19   N/A
SISTER BAY       1832   66     160/  8/ 10   N/A
KEWAUNEE LAKESHO 1900   62     200/ 14/ 18   N/A
SHEBOYGAN LAKESH 1900   50     130/  2/  3   N/A
PORT WASHINGTON  1800   53      70/  3/  3   N/A
ATWATER BUOY     1900   50 46  310/  6/  8   N/A
MILWAUKEE LAKESH 1900   57      20/  8/  9   N/A
S MID LAKE BUOY  1850   44 38   60/  8/ 10   N/A     0
KENOSHA   LAKESH 1900   52      10/  4/  4   N/A
$$

TC  - TEMPERATURE IN CELSIUS
VSB - VISIBILITY IN STATUTE MILES
WCI - WIND CHILL INDEX
HX  - HEAT INDEX



USA.gov is the U.S. government's official web portal to all federal, state and local government web resources and services.